Weather History for PAKF - December, 2013

Change the Weather History Date:

Wednesday, December 4, 2013

  Actual Average (PACD) Record (PACD)
Temperature  
Mean Temperature 46 °F 32 °F  
Max Temperature 46 °F 37 °F 50 °F (2013)
Min Temperature 44 °F 28 °F 10 °F (1977)
Degree Days  
Heating Degree Days 19 33  
Month to date heating degree days 129  
Since 1 July heating degree days 3155  
Cooling Degree Days 0    
Month to date cooling degree days  
Year to date cooling degree days  
Moisture  
Dew Point 45 °F    
Average Humidity 94    
Maximum Humidity 100    
Minimum Humidity 93    
Precipitation  
Precipitation 1.12 in 0.16 in 1.37 in (1993)
Month to date precipitation 0.65  
Year to date precipitation 37.86  
Snow  
Snow 0.00 in 0.40 in 3.70 in (1985)
Month to date snowfall 1.6  
Since 1 July snowfall 14.2  
Snow Depth -    
Sea Level Pressure  
Sea Level Pressure 29.87 in    
Wind  
Wind Speed 14 mph (SE)    
Max Wind Speed 26 mph    
Max Gust Speed 37 mph    
Visibility 4 miles    
Events Rain    
T = Trace of Precipitation, MM = Missing Value Source: NWS Daily Summary

Daily Weather History Graph

Daily Weather History Graph

Search for Another Location

Airport or City:

Trip Planner

Search our weather history database for the weather conditions in past years. The results will help you decide how hot, cold, wet, or windy it might be!

Date:

Astronomy

Dec. 04, 2013 Rise Set
Actual Time 8:59 AM HST 4:28 PM HST
Civil Twilight 8:15 AM HST 5:12 PM HST
Nautical Twilight 7:28 AM HST 5:59 PM HST
Astronomical Twilight 6:44 AM HST 6:43 PM HST
Moon 10:30 AM HST (12/4) 7:03 PM HST (12/4)
Length of Visible Light 8h 57m
Length of Day
7h 29m
Waxing Crescent, 5% of the Moon is Illuminated
Dec 4
Waxing Crescent
Dec 9
First Quarter
Dec 16
Full
Dec 25
Last Quarter
Jan 1
New

Hourly Weather History & Observations

Time (HST) Temp. Windchill Dew Point Humidity Pressure Visibility Wind Dir Wind Speed Gust Speed Precip Events Conditions
12:01 AM 44.6 °F 39.2 °F 44.6 °F 100% 29.87 in 3.0 mi SSE 10.4 mph 19.6 mph 0.03 in Rain Light Rain
12:29 AM 46.4 °F 40.7 °F 44.6 °F 93% 29.86 in 2.0 mi SSE 12.7 mph 23.0 mph 0.04 in Rain Light Rain
12:45 AM 46.4 °F 39.8 °F 44.6 °F 93% 29.86 in 2.0 mi SSE 16.1 mph 25.3 mph 0.04 in Rain Light Rain
1:01 AM 46.0 °F 38.8 °F 45.0 °F 96% 30.15 in 2.5 mi SSE 18.4 mph 24.2 mph 0.04 in Rain Light Rain
1:17 AM 46.4 °F 40.4 °F 44.6 °F 93% 29.86 in 4.0 mi SSE 13.8 mph 25.3 mph 0.01 in Rain Light Rain
1:37 AM 46.4 °F 40.7 °F 44.6 °F 93% 29.87 in 2.5 mi SSE 12.7 mph 21.9 mph 0.02 in Rain Light Rain
2:01 AM 46.0 °F 39.3 °F 45.0 °F 96% 30.14 in 2.5 mi SSE 16.1 mph 23.0 mph 0.03 in Rain Light Rain
2:08 AM 46.4 °F 39.5 °F 44.6 °F 93% 29.86 in 5.0 mi SSE 17.3 mph 25.3 mph 0.00 in Rain Light Rain
2:34 AM 46.4 °F 38.7 °F 44.6 °F 93% 29.85 in 2.5 mi SSE 20.7 mph 29.9 mph 0.01 in Rain Light Rain
2:46 AM 46.4 °F 39.8 °F 44.6 °F 93% 29.84 in 2.5 mi South 16.1 mph 27.6 mph 0.02 in Rain Light Rain
3:01 AM 46.9 °F - 45.0 °F 93% 30.13 in 2.5 mi SSE 17.3 mph 26.5 mph 0.04 in Rain Rain
3:24 AM 46.4 °F 39.5 °F 44.6 °F 93% 29.84 in 3.0 mi SE 17.3 mph 24.2 mph 0.03 in Rain Light Rain
3:35 AM 46.4 °F 40.1 °F 44.6 °F 93% 29.84 in 4.0 mi SE 15.0 mph 21.9 mph 0.05 in Rain Light Rain
4:01 AM 46.0 °F 39.3 °F 45.0 °F 96% 29.83 in 10.0 mi SE 16.1 mph 23.0 mph 0.05 in Rain Light Rain
4:25 AM 44.6 °F 36.6 °F 44.6 °F 100% 29.82 in 5.0 mi ESE 19.6 mph 26.5 mph N/A   Overcast
4:47 AM 44.6 °F 36.6 °F 42.8 °F 93% 29.82 in 2.0 mi East 19.6 mph 28.8 mph 0.00 in Rain Light Rain
5:01 AM 44.6 °F 37.4 °F 42.8 °F 93% 29.81 in 3.0 mi East 16.1 mph 27.6 mph 0.01 in Rain Light Rain
5:48 AM 44.6 °F 39.2 °F 42.8 °F 93% 29.80 in 6.0 mi ESE 10.4 mph 17.3 mph 0.07 in Rain Rain
6:01 AM 44.1 °F 37.4 °F 43.0 °F 96% 30.09 in 7.0 mi East 13.8 mph 20.7 mph 0.11 in Rain Rain
6:12 AM 44.6 °F 37.8 °F 42.8 °F 93% 29.81 in 7.0 mi East 15.0 mph - 0.03 in Rain Rain
6:59 AM 44.6 °F 38.4 °F 42.8 °F 93% 29.80 in 5.0 mi East 12.7 mph 17.3 mph 0.21 in Rain Rain
7:01 AM 45.0 °F 39.7 °F 43.0 °F 93% 30.08 in 5.0 mi East 10.4 mph 17.3 mph 0.21 in Rain Rain
8:01 AM 45.0 °F 38.5 °F 44.1 °F 97% 30.07 in 4.0 mi East 13.8 mph 17.3 mph 0.11 in Rain Light Rain
9:01 AM 46.4 °F 40.1 °F 44.6 °F 93% 29.77 in 2.5 mi SE 15.0 mph - 0.16 in Rain Light Rain
9:12 AM 46.4 °F 41.1 °F 44.6 °F 93% 29.77 in 3.0 mi SE 11.5 mph - 0.21 in Rain Rain
9:26 AM 44.6 °F 40.2 °F 44.6 °F 100% 29.77 in 3.0 mi ESE 8.1 mph - 0.25 in Rain Rain
10:01 AM 46.4 °F 42.4 °F 44.6 °F 93% 29.78 in 2.5 mi SE 8.1 mph - 0.34 in Rain Rain
10:11 AM 46.4 °F 42.4 °F 44.6 °F 93% 29.78 in 2.0 mi SSE 8.1 mph - 0.36 in Rain Light Rain
10:36 AM 46.4 °F 40.7 °F 44.6 °F 93% 29.78 in 1.8 mi SE 12.7 mph 16.1 mph 0.42 in Rain Rain
10:45 AM 46.4 °F 42.4 °F 44.6 °F 93% 29.78 in 1.5 mi SE 8.1 mph - 0.43 in Rain Light Rain
11:01 AM 46.0 °F 41.4 °F 45.0 °F 96% 30.06 in 1.8 mi SE 9.2 mph 20.7 mph 0.44 in Rain Light Rain
11:17 AM 46.4 °F 40.7 °F 44.6 °F 93% 29.78 in 1.8 mi SE 12.7 mph 19.6 mph 0.01 in Rain Light Rain
11:32 AM 46.4 °F 40.1 °F 44.6 °F 93% 29.77 in 2.0 mi SE 15.0 mph 21.9 mph 0.02 in Rain Light Rain
11:43 AM 46.4 °F 39.8 °F 44.6 °F 93% 29.76 in 1.8 mi SE 16.1 mph 21.9 mph 0.02 in Rain Light Rain
11:53 AM 46.4 °F 41.1 °F 44.6 °F 93% 29.76 in 2.5 mi SE 11.5 mph 18.4 mph 0.02 in Rain Light Rain
12:01 PM 46.4 °F 40.1 °F 44.6 °F 93% 29.75 in 3.0 mi SE 15.0 mph 18.4 mph 0.02 in Rain Light Rain
12:07 PM 46.0 °F 39.9 °F 45.0 °F 96% 30.04 in 4.0 mi ESE 13.8 mph 20.7 mph 0.03 in Rain Light Rain
12:31 PM 46.4 °F 40.7 °F 44.6 °F 93% 29.76 in 2.5 mi SSE 12.7 mph 23.0 mph 0.01 in Rain Light Rain
12:48 PM 46.4 °F 41.1 °F 44.6 °F 93% 29.76 in 2.5 mi SE 11.5 mph 19.6 mph 0.02 in Rain Light Rain
12:59 PM 46.4 °F 41.1 °F 44.6 °F 93% 29.77 in 2.0 mi SE 11.5 mph 19.6 mph 0.02 in Rain Light Rain
1:01 PM 46.0 °F 40.2 °F 45.0 °F 96% 30.05 in 2.0 mi SE 12.7 mph 19.6 mph 0.02 in Rain Light Rain
1:08 PM 46.4 °F 41.1 °F 44.6 °F 93% 29.77 in 1.8 mi SE 11.5 mph 18.4 mph 0.01 in Rain Light Rain
1:28 PM 46.4 °F 40.4 °F 44.6 °F 93% 29.76 in 3.0 mi SE 13.8 mph 20.7 mph 0.02 in Rain Light Rain
1:36 PM 46.4 °F 40.1 °F 44.6 °F 93% 29.76 in 1.8 mi SE 15.0 mph 20.7 mph 0.02 in Rain Light Rain
2:01 PM 46.0 °F 39.3 °F 45.0 °F 96% 30.04 in 1.5 mi SE 16.1 mph 24.2 mph 0.02 in Rain Light Rain
2:26 PM 46.4 °F 40.4 °F 44.6 °F 93% 29.76 in 2.5 mi SE 13.8 mph 23.0 mph 0.01 in Rain Light Rain
2:56 PM 46.4 °F 40.7 °F 44.6 °F 93% 29.74 in 3.0 mi SE 12.7 mph 20.7 mph 0.01 in Rain Light Rain
3:01 PM 46.0 °F 39.6 °F 44.1 °F 93% 30.02 in 4.0 mi SE 15.0 mph 23.0 mph 0.01 in Rain Light Rain
3:23 PM 44.6 °F 38.4 °F 44.6 °F 100% 29.74 in 2.5 mi SE 12.7 mph 23.0 mph 0.00 in Rain Light Rain
4:01 PM 46.0 °F 40.2 °F 44.1 °F 93% 30.02 in 2.5 mi SE 12.7 mph 23.0 mph 0.00 in Rain Light Rain
4:03 PM 46.4 °F 40.4 °F 44.6 °F 93% 29.74 in 3.0 mi SE 13.8 mph 19.6 mph 0.00 in Rain Light Rain
5:01 PM 48.2 °F - 46.4 °F 93% 29.75 in 8.0 mi ESE 19.6 mph 27.6 mph 0.01 in Rain Light Rain
5:07 PM 48.0 °F - 46.0 °F 93% 30.04 in 8.0 mi ESE 21.9 mph 27.6 mph 0.01 in   Overcast
6:01 PM 46.9 °F - 46.0 °F 97% 30.03 in 5.0 mi ESE 17.3 mph 34.5 mph 0.00 in Rain Light Rain
6:10 PM 46.4 °F 38.1 °F 46.4 °F 100% 29.75 in 5.0 mi ESE 24.2 mph 32.2 mph 0.00 in Rain Light Rain
7:01 PM 46.9 °F - 46.0 °F 97% 30.04 in 6.0 mi ESE 26.5 mph 33.4 mph 0.00 in Rain Light Rain
8:01 PM 46.9 °F - 45.0 °F 93% 30.06 in 5.0 mi SE 17.3 mph 25.3 mph 0.00 in Rain Light Rain
8:28 PM 46.4 °F 37.9 °F 44.6 °F 93% 29.76 in 10.0 mi ESE 25.3 mph 36.8 mph 0.00 in Rain Light Rain
9:01 PM 46.0 °F 39.0 °F 45.0 °F 96% 30.05 in 9.0 mi SE 17.3 mph 32.2 mph 0.00 in Rain Light Rain
10:01 PM 46.0 °F 41.0 °F 45.0 °F 96% 30.08 in 8.0 mi SE 10.4 mph 21.9 mph 0.00 in Rain Light Rain
11:01 PM 46.4 °F 39.2 °F 44.6 °F 93% 29.80 in 2.5 mi SE 18.4 mph 27.6 mph 0.02 in Rain Light Rain